Tri Cities Regional Tn Va Airport Bristol,Johnson,Kingsport US
ICAO: KTRI
IATA: TRI
Category: Large
Scheduled Services: Yes

Elevation: 1519 ft
TransAlt. 18000 ft.

Airport Communications:
APP:119.25
ATIS:118.25
CTAF:119.5
DEP:125.5
GND:121.7
NASHVILLE RDO:122.2
TWR:119.5
UNICOM:122.95

KTRI Zoom In..

If you have problems with the map follow the link
https://www.worldairports.se/pages/airport.php?
ICAO=KTRI

Runways:

(A) RW 05 length 8000 ft width 150 ft
ILS 111.50 / hdg 48

(B) RW 09 length 4442 ft width 150 ft
---- / hdg 94

(C) RW 23 length 8000 ft width 150 ft
ILS 109.90 / hdg 228

(D) RW 27 length 4442 ft width 150 ft
---- / hdg 274

Location; KTRI
Day. 19 / Time. 17.53 Zulu
* Altimeter: 30.40
* Temperature: 07° c. 44.6°f.
* Wind from: KTR° Speed I kn.
Dewpoint: 00° c.
Visibility: 10 Statute Miles.
Clouds: Broken 23000 ft.

KTRI 191753Z 02006KT 10SM BKN230 07/00 A3040 RMK AO2 SLP287 T00720000 10072 20050 50003


Wind From KTR°
Speed I kn.

 
 
jpsmedia worldairports.se 2020   terms of use